GFSMW_850_spd_219.txt.gz
Wind_Speed
35 33 35 33 31 41 40 36 28 29 36 43 44 42 41 40 40 40 39 39 37 37 39 41 39 36 36 34 30 28 27 27 24 24 26 26 25 26 25 25 24 24 23
26 23 26 25 30 35 35 32 29 32 29 33 38 43 43 42 39 38 39 39 38 36 35 38 40 39 38 37 34 32 32 30 28 29 28 26 29 32 30 29 27 27 28
29 25 28 28 28 31 35 36 34 33 34 34 40 45 44 42 40 40 40 39 38 37 36 35 36 36 37 39 37 37 36 35 33 34 28 14 19 16 20 24 26 28 28
33 30 29 31 33 35 36 35 32 33 36 40 42 44 45 44 39 39 39 38 36 35 36 36 36 37 35 37 38 37 35 38 41 39 39 38 29 15 10 15 16 17 16
31 26 25 23 25 37 42 39 39 36 40 41 42 42 44 41 41 41 41 39 38 36 36 37 38 38 37 38 40 38 39 39 43 44 43 41 40 38 31 21 18 19 19
28 29 29 27 30 31 37 40 36 37 41 40 39 36 35 37 39 41 40 36 35 38 38 39 41 41 39 37 37 37 40 42 42 45 44 43 44 41 40 37 32 28 21
33 36 37 37 33 32 32 38 36 36 36 35 30 29 30 33 34 36 36 34 32 33 35 40 39 39 39 39 38 40 39 43 44 47 47 42 41 41 35 27 22 20 22
32 35 33 33 33 31 32 35 34 34 33 30 28 27 28 30 31 31 32 33 32 30 29 31 34 34 35 36 37 38 36 36 38 40 41 39 37 39 21 22 22 19 20
42 48 43 39 30 32 33 31 32 33 30 26 25 27 26 27 28 27 27 27 28 28 26 27 28 31 32 33 35 36 37 36 37 37 38 34 28 31 28 31 20 19 15
38 39 37 34 31 35 34 33 34 31 27 25 26 24 21 21 21 23 24 23 25 29 27 28 28 27 27 30 33 34 35 35 34 32 31 34 36 22 19 21 20 19 20
36 28 31 33 37 39 38 36 34 30 25 21 20 20 19 18 18 19 21 24 27 28 27 27 28 28 29 31 32 35 33 33 33 34 32 26 24 22 19 20 17 15 15
23 21 27 29 36 41 40 37 33 28 20 17 18 17 16 17 18 20 21 24 26 27 28 27 25 27 31 31 35 36 31 27 30 28 26 24 20 17 18 15 12 13 14
22 19 23 28 38 43 40 36 29 25 20 19 17 15 14 16 18 18 17 16 15 18 20 25 28 29 29 28 29 31 31 29 27 26 23 20 20 15 13 12 12 12 15
25 16 21 29 37 39 37 33 28 27 22 20 16 11 10 13 16 15 15 13 14 17 21 22 23 24 23 23 29 28 26 23 21 20 20 16 13 12 10 10 11 16 18
31 19 24 32 39 40 40 36 32 32 27 23 16 13 12 9 11 13 13 15 17 20 21 22 22 19 22 27 28 24 21 19 19 17 15 14 12 12 10 10 14 15 16
28 24 24 39 46 47 46 42 38 38 34 27 20 18 14 8 11 13 14 13 16 18 20 19 22 25 24 20 16 14 16 17 16 15 13 12 10 9 10 11 12 13 17
36 33 30 25 41 53 52 49 45 43 39 33 26 21 18 15 12 12 15 18 20 19 21 22 22 20 18 16 17 18 17 16 14 13 13 11 10 11 13 15 14 16 22
45 45 42 37 33 38 52 52 47 43 38 34 31 26 22 19 16 15 16 18 21 23 24 22 20 20 20 20 19 18 16 14 13 11 13 16 16 17 18 16 18 23 24
39 49 47 44 37 28 27 45 47 42 42 40 36 31 28 26 23 19 19 23 25 24 22 21 22 22 22 19 17 15 13 12 13 14 15 15 16 18 21 23 26 26 25
38 39 43 40 37 31 33 36 47 52 49 46 40 35 31 28 25 22 24 26 26 26 26 26 23 21 19 18 17 14 13 14 14 14 17 21 24 21 22 25 27 28 25
37 38 30 32 35 36 40 41 49 56 53 48 43 39 34 31 27 27 26 26 30 31 30 28 26 24 22 18 15 14 14 14 17 18 23 23 21 19 21 23 24 26 26
42 40 44 37 34 32 34 35 40 46 52 50 47 41 36 32 31 29 28 30 33 32 29 26 24 21 17 16 15 14 14 18 20 20 20 16 17 19 21 24 25 26 28
44 44 43 47 48 43 39 40 43 47 51 48 43 37 35 34 34 34 32 33 33 30 27 25 22 19 15 14 14 15 18 19 18 16 16 18 23 25 26 28 29 30 29
43 43 47 47 47 43 38 42 42 43 43 43 38 37 39 41 40 38 36 35 31 27 24 21 18 14 13 16 17 15 14 13 18 19 23 25 27 28 30 31 30 28 28
50 45 46 44 40 37 36 37 36 40 41 37 38 40 39 38 37 32 27 24 22 20 16 12 10 11 14 12 11 13 17 21 23 25 27 28 28 30 31 30 29 27 24
45 41 40 37 35 33 33 32 33 35 37 40 42 43 41 35 31 29 27 23 17 13 10 10 9 10 14 18 17 19 21 22 24 26 28 28 29 29 29 29 28 26 24

GFSMW_850_spd_225.txt.gz
Wind_Speed
25 24 25 28 32 36 40 41 41 39 39 39 40 42 41 39 41 42 41 40 40 39 38 38 37 35 35 34 33 32 32 32 31 29 30 30 29 30 31 30 29 27 26
29 26 27 29 35 38 36 41 44 46 45 44 43 42 42 43 42 43 43 43 42 42 42 41 40 38 37 37 37 36 35 34 33 31 30 23 26 33 33 31 31 29 29
36 32 33 33 34 37 37 42 41 44 44 46 47 45 45 43 43 43 42 41 43 44 44 42 42 40 39 40 39 39 39 39 37 34 30 14 18 20 24 30 33 32 34
37 38 36 37 36 34 35 36 42 42 42 45 48 48 46 44 34 33 36 40 41 43 44 42 41 40 40 40 40 39 39 39 42 39 39 39 31 17 15 19 23 24 27
38 37 35 34 35 30 29 27 33 39 40 40 41 43 45 42 41 38 37 38 39 40 40 39 39 38 38 37 37 37 36 38 40 43 40 40 41 43 41 27 29 27 27
31 33 32 32 36 30 28 27 28 31 34 36 39 42 43 43 42 40 39 37 36 35 34 34 35 35 35 35 36 35 36 36 37 40 41 44 36 41 45 41 37 33 30
30 30 31 28 26 29 28 29 28 27 30 36 44 48 46 45 44 42 40 36 33 31 28 26 27 28 29 31 33 34 36 37 37 37 40 42 44 44 45 31 33 35 31
22 25 25 19 16 16 20 25 29 32 33 38 42 47 48 46 43 42 37 34 30 26 22 21 21 21 22 24 26 29 31 32 33 34 36 39 41 41 40 40 35 32 28
25 28 26 16 18 21 22 23 28 36 34 35 38 43 48 47 43 38 35 32 27 24 23 23 22 22 21 21 22 24 26 27 28 30 31 34 36 36 33 32 30 30 19
23 19 18 15 14 20 28 32 33 37 38 36 36 41 44 44 39 36 33 28 25 24 24 25 25 25 23 21 22 23 23 25 26 28 28 28 30 32 30 24 27 29 32
15 14 17 15 21 22 27 33 36 37 39 35 36 39 39 39 36 32 29 28 27 27 26 26 26 26 24 23 22 23 24 26 26 25 25 26 24 23 24 23 21 20 22
20 16 12 24 24 20 27 25 26 33 35 34 37 34 35 35 32 32 30 29 28 27 27 25 24 25 23 21 22 23 21 23 22 22 21 23 23 26 23 23 22 24 22
28 24 23 21 23 22 28 27 22 27 32 33 34 34 35 35 34 32 29 29 27 27 24 23 24 24 24 23 24 24 24 22 21 22 25 27 27 25 24 24 21 17 15
15 18 20 19 19 22 27 27 22 25 27 31 34 36 37 35 33 31 30 28 26 24 22 22 22 23 22 21 19 19 19 22 23 23 24 27 27 26 26 24 20 17 17
17 16 18 19 19 20 23 23 19 19 26 30 33 34 33 33 32 31 32 29 27 24 22 21 21 21 20 19 17 18 20 21 22 23 26 24 21 21 17 14 17 18 17
25 25 23 23 21 22 19 19 19 20 27 31 33 34 34 34 34 34 33 30 28 27 25 25 23 23 22 21 21 20 20 20 23 20 23 23 23 19 15 17 16 15 15
31 31 25 27 26 25 21 18 18 21 30 34 34 33 34 35 36 36 34 32 31 30 30 28 26 23 21 19 15 14 19 21 24 25 25 23 20 16 15 16 13 12 13
33 31 25 21 20 22 23 22 20 20 26 35 36 35 35 34 35 34 33 31 30 28 26 26 22 19 19 14 12 16 21 22 20 17 18 15 16 13 13 12 12 11 13
27 26 20 18 21 22 23 25 23 19 24 30 39 43 41 40 37 36 35 33 31 28 25 25 22 18 18 15 15 21 23 21 18 17 17 16 14 13 14 12 11 12 14
20 27 23 27 27 24 20 24 25 22 25 28 33 41 46 44 42 41 38 35 30 29 26 27 21 19 20 24 20 19 18 18 19 18 16 15 14 13 12 11 12 16 18
26 30 31 30 27 24 21 22 25 29 27 26 29 33 37 45 43 44 38 35 32 32 30 27 28 27 24 21 21 20 18 18 17 16 15 13 11 12 14 19 20 20 20
33 34 32 30 32 25 24 26 27 30 27 27 27 29 32 40 46 43 41 37 35 35 32 32 32 30 25 21 22 23 21 20 17 16 14 13 13 19 20 17 17 17 17
37 31 30 33 33 30 27 30 30 27 27 26 28 28 31 37 44 44 43 41 39 40 39 39 36 32 30 26 27 25 23 20 18 16 15 16 16 14 17 17 18 19 19
36 30 31 37 40 34 35 32 31 29 27 27 32 35 35 37 39 39 43 46 45 45 43 43 38 36 33 30 28 26 22 19 17 15 13 13 15 17 17 18 19 19 19
31 31 34 38 41 39 37 35 34 31 27 28 33 37 37 36 37 43 47 47 48 46 43 38 39 40 35 29 24 21 20 18 17 16 15 15 19 19 19 18 17 18 19
32 32 33 38 43 42 39 37 35 30 26 28 32 38 38 39 42 47 48 49 49 47 41 38 40 32 25 24 24 21 17 16 15 14 15 18 17 17 17 18 17 18 18

GFSMW_850_spd_231.txt.gz
Wind_Speed
32 32 31 32 31 30 31 32 33 35 35 34 34 33 36 34 32 31 32 34 37 35 37 38 35 36 33 31 30 30 30 25 24 22 24 23 24 27 28 27 30 28 26
31 31 32 31 32 32 32 33 34 36 38 36 35 33 33 33 31 31 32 37 38 38 38 39 40 40 39 36 35 33 30 27 26 24 21 22 23 27 28 28 28 31 31
28 31 32 31 30 32 33 34 35 36 37 38 34 32 29 30 30 32 34 39 40 40 40 40 41 42 42 41 40 39 39 31 27 29 25 15 21 20 20 26 24 23 26
33 36 33 31 31 31 33 34 36 37 38 38 37 38 38 38 42 42 41 39 40 42 42 41 42 42 43 44 42 39 40 39 33 27 33 36 29 15 19 17 20 22 21
35 34 33 35 36 33 34 35 37 37 39 42 45 42 43 42 38 37 35 36 38 40 42 43 42 45 44 46 44 37 38 39 38 35 26 28 27 27 30 28 25 26 27
34 36 37 38 39 37 36 35 38 42 42 44 48 50 45 46 40 36 36 38 38 40 40 40 43 44 46 45 45 43 41 41 38 36 34 32 28 26 25 28 29 31 26
25 28 29 34 36 36 35 34 32 43 42 44 48 53 53 52 50 40 41 36 37 38 40 39 40 43 44 45 43 43 42 41 40 39 38 34 34 31 29 28 29 27 27
16 19 27 27 28 30 32 36 37 44 42 40 47 48 53 51 49 45 41 39 39 40 38 40 39 41 41 39 40 40 40 39 40 39 37 34 33 31 35 35 30 27 32
26 24 20 19 20 27 24 26 29 31 30 33 41 45 46 48 46 46 44 41 39 39 40 39 38 37 35 34 33 34 35 35 33 33 31 31 33 34 33 32 33 32 26
29 22 22 18 18 18 19 20 21 21 21 28 32 39 44 44 43 43 41 41 41 41 35 39 38 34 33 32 32 31 31 31 30 29 29 30 31 30 32 30 30 31 33
11 11 12 11 11 12 12 14 16 16 20 25 29 33 36 40 42 43 44 43 42 41 41 39 37 35 35 33 33 33 32 31 30 29 29 29 27 27 27 27 28 29 29
17 10 11 14 13 15 13 11 12 14 15 17 22 33 37 39 42 45 47 45 42 42 40 37 34 34 34 34 35 34 33 31 31 30 27 27 25 27 25 27 26 26 25
21 21 17 17 14 13 10 11 11 11 13 14 18 24 32 38 41 44 46 44 42 42 41 38 36 35 36 38 34 32 31 31 30 29 27 25 24 25 25 23 23 25 23
25 18 21 15 14 12 12 12 11 11 12 14 16 20 24 28 33 36 37 39 40 42 40 40 38 35 36 33 32 31 31 31 30 29 27 25 23 23 22 24 25 21 25
29 21 21 23 22 22 20 17 16 15 15 16 16 17 20 23 26 30 33 35 39 40 40 39 37 36 38 32 30 30 31 32 30 29 26 24 23 22 21 21 23 17 22
33 34 33 30 27 25 25 20 18 15 13 15 17 16 16 20 23 26 31 34 36 38 38 39 41 40 37 33 32 32 34 32 29 26 25 23 22 20 20 17 18 15 16
26 26 30 34 32 28 26 27 20 17 17 15 16 15 17 20 23 26 29 32 37 39 38 41 42 42 38 35 34 34 33 29 27 25 24 23 19 18 14 12 15 19 18
22 23 24 24 25 23 18 18 18 17 20 20 17 16 16 20 20 28 32 33 36 38 39 42 42 42 37 37 38 35 32 27 25 23 22 19 18 18 18 18 18 18 17
16 17 21 25 23 22 20 20 20 17 17 17 16 16 19 19 20 22 30 35 34 35 36 39 39 39 38 39 37 32 30 27 24 21 19 15 19 21 20 18 19 18 16
23 22 25 24 23 21 22 24 24 21 19 17 17 15 17 20 24 26 26 29 35 37 37 37 36 33 34 34 31 31 30 26 24 21 21 18 20 19 18 19 19 16 15
28 26 28 29 29 27 26 27 27 26 21 19 18 22 22 20 25 27 28 33 36 36 38 38 37 35 32 31 31 31 29 26 23 22 26 25 23 20 18 19 17 14 14
35 33 33 34 32 31 29 30 29 24 21 20 20 19 20 22 24 26 28 31 36 34 37 39 37 36 34 29 29 27 26 22 19 22 24 24 21 20 19 19 17 15 14
40 38 37 36 35 32 31 32 30 24 22 21 20 20 19 19 20 24 30 34 34 33 40 41 40 39 37 34 31 29 27 22 19 16 21 22 21 21 21 21 19 16 16
40 40 39 39 38 34 33 35 33 28 25 23 21 19 19 19 22 25 30 34 37 36 43 46 44 43 42 40 38 33 32 26 27 27 28 26 24 23 22 21 18 16 14
42 40 40 40 40 38 37 35 34 29 28 27 24 20 19 19 25 25 30 34 37 38 41 49 47 48 49 48 46 45 45 41 36 33 32 30 28 25 23 20 18 16 15
42 41 40 41 42 42 43 36 35 33 31 30 27 24 22 25 25 27 32 34 37 38 37 49 48 47 47 47 44 43 38 37 36 34 33 30 27 24 21 18 16 15 15

GFSMW_850_spd_237.txt.gz
Wind_Speed
36 42 46 50 48 49 45 39 36 37 37 39 42 47 43 39 38 37 34 34 33 32 33 34 36 36 36 36 35 34 33 34 31 28 31 30 28 28 30 29 29 30 29
46 34 48 49 54 54 51 45 39 36 38 40 42 44 47 43 41 40 40 38 37 36 35 36 37 39 39 39 37 38 39 38 33 33 31 32 33 36 35 33 33 33 31
46 45 45 50 55 56 55 51 45 40 38 39 42 42 42 45 44 45 44 43 42 39 38 38 38 38 40 41 40 40 41 41 39 37 30 15 24 26 25 26 27 25 22
33 50 37 48 54 58 56 55 50 47 43 40 42 45 46 48 49 47 46 45 44 43 41 40 40 40 41 43 43 43 43 41 42 40 42 42 29 15 11 16 16 18 23
28 34 42 23 47 58 57 55 53 51 49 46 41 42 46 46 46 45 46 46 45 45 45 44 42 42 42 43 44 45 47 46 45 46 44 44 44 42 39 35 36 34 31
26 21 21 15 16 41 52 55 53 52 49 47 46 43 42 42 45 46 46 46 46 45 46 46 47 45 45 45 45 44 46 48 48 49 48 47 45 44 42 42 43 39 32
22 25 33 31 16 18 41 47 49 48 47 47 47 46 45 44 44 45 47 47 47 47 48 49 49 50 49 47 46 46 46 48 49 49 51 49 49 44 38 36 37 35 28
25 25 24 35 28 18 25 37 40 47 49 48 49 47 46 48 49 48 47 47 48 49 47 48 50 50 49 48 47 47 46 47 48 49 49 49 46 45 45 39 32 31 28
25 14 11 1 9 7 10 14 23 27 39 44 46 49 49 53 53 51 50 48 48 48 49 49 49 50 50 49 48 47 47 47 48 49 49 49 47 43 40 40 41 35 30
23 15 7 10 6 6 12 14 14 12 11 22 37 40 41 39 40 45 51 51 52 52 48 48 49 49 50 48 49 49 47 48 49 49 48 49 47 43 40 37 34 33 34
22 8 5 4 8 14 10 3 5 4 4 9 20 25 25 26 29 35 42 44 48 53 47 44 44 49 51 50 49 49 48 48 49 49 50 48 45 44 40 39 37 34 33
29 27 25 14 8 9 13 11 12 2 3 6 7 10 12 17 24 27 30 36 40 46 47 44 49 48 48 50 52 49 48 49 50 49 50 50 45 43 40 36 36 34 31
28 25 27 22 19 10 6 4 6 10 11 7 4 6 10 14 18 21 27 34 37 37 40 44 47 49 54 52 53 52 50 48 49 49 49 50 45 42 42 40 36 34 30
25 24 25 24 20 17 16 12 10 11 13 14 9 9 11 15 19 20 20 22 31 38 37 41 43 46 51 56 56 55 53 49 49 49 48 47 47 44 44 40 36 32 27
32 32 27 30 18 11 12 13 16 16 16 20 22 22 19 19 23 25 25 24 24 25 38 36 39 45 48 51 55 56 54 49 49 48 49 48 48 44 41 38 35 32 30
25 28 23 24 21 28 22 17 15 14 16 18 20 21 24 29 26 28 30 27 26 27 29 34 38 40 46 50 53 54 54 50 50 49 51 49 46 42 38 35 33 31 31
26 25 20 25 26 16 22 24 20 20 18 18 17 20 23 24 29 27 30 32 30 29 31 34 36 41 45 47 50 52 52 52 51 48 51 48 46 42 40 37 34 30 29
29 32 31 28 25 26 28 28 24 21 24 23 20 20 24 27 29 30 32 34 33 31 31 35 36 40 43 46 49 51 51 52 52 49 49 44 46 44 42 40 34 33 30
28 30 32 31 28 28 30 28 26 26 25 27 28 25 24 27 33 33 32 32 34 35 31 29 36 38 40 41 44 47 49 52 54 50 47 44 46 46 43 39 36 34 30
31 31 30 30 30 31 33 34 32 33 27 27 28 29 29 31 34 35 36 35 36 35 33 32 31 36 38 37 42 45 47 54 51 48 42 44 44 46 42 38 36 34 33
28 29 31 31 34 35 35 35 35 34 35 34 30 32 34 33 32 32 29 30 31 34 34 35 33 33 34 33 33 39 43 47 45 45 43 44 45 41 39 35 34 32 29
32 30 31 31 34 36 38 41 41 41 41 38 36 36 35 38 35 32 32 30 29 31 31 34 34 34 33 34 34 38 43 44 53 40 41 42 44 38 35 32 29 29 26
30 31 31 38 42 43 42 42 41 42 46 47 39 37 38 37 37 38 37 36 35 29 32 33 34 35 33 31 32 30 34 37 39 36 37 41 40 36 34 34 34 31 29
35 34 35 38 45 43 41 45 46 46 45 46 49 41 40 40 37 40 38 33 31 32 34 33 35 33 34 32 35 33 39 42 43 41 39 41 40 39 40 38 36 34 32
43 43 42 39 43 45 45 47 44 42 45 46 48 50 41 42 37 36 38 34 28 29 29 32 31 31 35 34 31 35 37 42 43 39 38 44 47 46 45 43 40 36 32
41 41 41 40 43 47 51 54 48 42 44 45 48 48 45 38 38 35 41 34 27 28 30 31 34 29 29 30 28 30 33 43 47 43 48 50 51 48 47 45 42 37 33

GFSMW_850_spd_240.txt.gz
Wind_Speed
35 41 53 52 51 48 44 43 41 39 40 46 47 46 45 41 38 35 34 34 32 32 33 34 35 34 34 33 32 30 29 30 28 25 29 30 30 32 33 31 29 28 26
28 38 45 55 58 58 51 50 47 43 41 43 45 46 45 43 40 37 35 36 34 33 33 35 35 37 38 37 36 36 35 34 32 32 31 33 33 36 34 33 32 30 28
50 38 35 48 58 63 62 58 54 49 44 41 43 44 45 44 41 42 40 39 38 36 35 35 37 38 39 40 40 40 40 40 38 37 31 13 23 29 28 25 24 24 24
50 48 45 34 53 65 68 64 61 55 49 46 47 46 46 49 48 46 43 42 42 41 40 39 39 39 40 42 43 43 44 43 45 43 43 44 36 17 16 22 17 17 19
29 30 31 29 41 55 70 70 67 63 56 54 52 49 47 44 45 48 47 46 45 45 44 42 43 43 44 44 44 45 46 47 47 48 46 44 46 47 45 40 39 35 31
28 24 17 23 23 49 62 72 73 69 63 60 57 53 48 45 48 49 48 48 48 47 48 46 47 46 46 47 46 46 46 47 48 49 50 49 48 50 49 49 50 47 44
38 31 26 19 18 33 57 62 68 71 68 66 62 57 50 45 43 41 42 44 47 48 46 46 47 48 48 48 48 49 48 48 48 50 52 53 53 51 49 45 47 43 41
27 27 21 20 17 24 39 58 66 68 69 67 65 58 53 48 45 44 42 42 43 41 39 41 44 45 47 46 48 51 50 50 50 50 52 52 53 53 52 53 43 42 42
31 17 13 10 7 7 33 46 53 65 67 68 64 60 57 51 49 47 46 45 43 42 41 40 39 41 43 45 47 50 51 51 51 51 50 52 52 53 52 50 47 43 36
37 37 30 23 18 4 7 19 39 46 54 57 58 58 55 51 51 49 47 46 44 43 42 42 43 45 47 45 47 50 50 53 53 52 52 51 52 51 52 51 45 43 44
35 31 34 30 21 19 14 9 9 17 24 29 35 44 47 47 46 42 39 38 39 40 41 43 47 49 49 48 48 49 49 52 50 51 52 51 50 50 51 51 46 43 41
35 33 36 28 23 25 23 19 19 13 7 10 11 11 13 15 17 19 21 25 30 31 34 40 45 49 48 47 49 51 51 53 52 49 51 51 49 49 49 51 47 45 42
38 35 40 40 39 35 26 20 16 14 12 13 12 10 9 7 7 7 11 16 21 23 26 29 36 43 48 48 50 52 52 52 53 52 50 48 49 49 49 49 48 46 42
30 33 32 30 30 35 34 32 20 12 10 10 4 2 1 2 4 5 8 11 13 16 19 22 31 38 43 46 49 52 54 54 54 55 55 52 50 50 47 45 48 47 42
31 27 30 30 30 28 31 29 26 20 15 13 9 7 10 12 13 16 18 21 21 20 20 21 26 29 38 42 47 49 51 54 55 55 56 54 52 50 46 46 48 47 41
27 28 33 29 20 29 31 28 24 22 19 17 19 17 13 11 14 17 19 21 22 23 23 25 27 31 33 37 40 43 49 51 54 55 56 55 53 49 46 48 49 47 42
28 29 29 31 31 29 27 31 29 24 20 18 15 17 20 20 19 20 22 25 30 30 30 29 28 31 34 36 36 38 43 48 51 53 54 55 54 49 46 47 49 45 44
28 31 33 36 38 37 32 30 29 27 24 24 25 19 19 21 23 24 24 27 28 29 30 32 33 35 35 33 34 35 38 44 50 53 53 55 54 47 47 46 50 46 45
27 28 31 33 35 36 37 37 36 32 29 26 24 23 22 23 24 23 26 26 27 30 31 32 34 35 38 35 32 33 35 40 45 51 55 56 55 52 47 46 49 44 48
30 36 37 35 35 39 40 40 40 40 40 35 34 33 30 25 25 25 23 24 27 30 33 36 36 34 38 37 35 33 32 36 39 44 49 55 56 54 52 47 47 47 48
34 25 28 33 31 35 37 41 43 42 43 41 41 40 37 35 31 29 27 28 31 32 33 36 38 37 33 36 38 35 32 34 37 38 40 46 52 56 53 53 48 47 44
25 28 31 34 36 36 38 41 42 44 47 47 46 43 42 40 38 35 31 27 29 35 35 34 37 37 32 31 31 31 31 34 37 37 43 41 46 53 50 56 48 38 40
29 33 35 38 40 40 37 40 46 44 46 48 49 48 46 45 43 41 39 34 27 37 37 36 37 37 34 31 30 28 28 30 36 34 42 43 37 46 36 31 42 39 38
33 36 39 41 45 43 42 40 45 45 44 46 48 49 48 47 46 45 44 44 36 32 37 37 34 34 33 33 32 30 27 28 30 31 33 37 38 41 45 43 39 39 41
35 37 39 42 46 47 47 43 39 40 43 45 47 48 48 49 49 48 46 43 43 36 35 36 31 31 34 34 32 30 25 27 27 29 34 35 35 39 42 42 41 43 45
35 33 34 37 43 43 45 42 40 38 39 43 45 46 46 48 46 46 50 44 42 39 33 35 32 31 33 33 34 29 24 27 26 23 26 31 34 42 47 46 46 48 49

GFSMW_850_spd_243.txt.gz
Wind_Speed
34 38 45 49 52 49 47 48 48 49 48 51 51 49 49 46 44 42 40 39 38 37 36 36 35 34 33 32 30 29 30 30 29 26 29 30 29 30 31 30 30 29 28
25 34 39 48 51 54 51 50 50 51 50 51 52 52 50 48 45 43 41 41 41 39 39 39 38 37 37 36 36 34 34 34 32 31 31 32 33 33 31 31 30 29 29
27 30 37 43 50 54 56 55 53 53 53 50 52 53 52 49 48 46 45 43 40 40 39 38 39 38 37 38 38 37 37 37 36 35 30 11 16 22 23 19 19 18 19
24 14 27 39 47 55 55 59 58 57 57 55 55 54 54 54 52 50 47 45 43 40 40 39 39 38 37 38 39 39 39 38 40 40 39 39 40 24 25 25 18 20 22
31 34 32 21 28 51 59 60 63 63 61 61 59 57 55 50 48 51 49 47 44 43 42 41 40 39 39 39 39 41 41 42 42 44 44 43 42 44 47 42 46 41 38
29 28 26 23 21 26 49 60 65 67 68 66 63 62 58 55 54 51 51 47 45 44 44 42 42 42 42 41 41 41 42 42 43 44 47 49 45 45 46 48 54 51 51
32 32 24 22 20 20 33 50 62 67 70 71 68 67 63 60 56 52 51 49 48 47 44 43 43 44 43 43 43 43 43 44 45 45 46 48 50 50 50 45 50 47 52
40 43 37 36 24 15 21 43 57 62 64 67 72 71 68 65 61 56 53 50 47 43 42 43 44 43 42 42 44 45 44 43 45 45 47 48 49 50 50 51 43 44 47
42 39 41 44 46 35 14 31 44 51 55 60 62 67 69 66 66 51 52 48 48 44 39 38 38 38 38 38 39 42 42 42 43 43 44 47 47 49 50 50 48 46 41
41 46 48 49 48 45 42 13 17 28 38 43 49 52 52 50 54 50 57 59 50 44 38 34 33 33 34 35 38 41 41 43 44 45 46 45 44 47 48 48 47 46 46
37 42 43 44 46 46 47 38 33 14 16 27 34 44 47 49 48 46 47 40 34 39 35 32 32 33 34 36 39 41 42 43 44 47 48 47 45 47 47 46 46 47 47
30 37 41 41 45 45 43 45 36 29 29 20 9 30 30 33 35 37 38 37 62 37 27 25 25 28 30 33 38 40 40 42 44 47 49 48 46 49 47 47 46 47 46
31 26 32 40 40 42 43 40 40 37 27 23 20 18 10 4 3 3 11 17 14 11 13 17 21 24 27 31 34 37 41 41 44 44 47 50 49 50 48 48 46 45 44
30 34 30 33 37 36 34 36 36 33 33 26 23 17 12 8 5 3 1 3 5 6 9 14 17 19 22 26 29 32 37 38 42 44 45 47 49 49 48 49 48 45 42
30 30 32 31 33 35 35 34 30 30 32 26 22 19 16 15 15 13 11 11 10 11 11 11 12 14 18 20 21 24 29 32 34 39 43 46 46 47 45 47 48 46 43
27 28 27 30 34 37 32 32 30 33 24 26 22 21 18 16 15 14 15 18 17 16 18 20 19 17 17 16 19 22 26 27 32 37 40 42 44 45 44 44 42 46 45
27 30 31 29 30 30 34 33 33 30 30 24 23 22 18 18 17 17 15 15 16 18 19 19 21 22 21 19 18 19 23 30 31 32 37 42 46 47 46 45 46 47 48
31 33 38 39 36 32 33 35 35 33 32 31 27 23 27 25 24 23 20 19 20 21 21 24 24 23 22 23 23 23 24 26 29 33 34 37 42 45 47 47 48 47 49
23 32 35 34 36 33 35 36 36 37 36 35 35 30 28 31 29 27 27 22 20 20 20 23 28 28 27 24 24 25 27 29 30 30 35 37 37 40 45 45 50 51 52
29 30 30 35 36 38 39 37 39 38 37 39 40 40 39 37 34 33 33 31 27 26 26 27 25 27 30 27 26 25 27 32 32 32 32 35 38 38 34 48 46 51 54
27 26 30 30 32 36 38 41 40 39 40 42 42 44 44 44 40 39 37 36 35 34 31 29 27 29 27 28 27 28 28 31 33 33 33 32 32 35 34 41 38 49 49
27 28 30 32 33 33 35 39 42 42 42 41 43 44 46 45 45 43 42 40 38 38 37 33 32 30 30 30 28 28 27 28 33 33 33 31 28 30 34 33 38 43 50
27 28 31 33 34 36 36 37 39 42 44 45 45 44 44 46 46 45 45 45 42 39 41 40 36 35 31 30 31 26 26 27 30 32 33 33 30 27 30 37 31 35 39
28 31 34 36 40 41 43 40 38 39 39 39 40 43 44 46 45 45 45 44 44 43 41 39 39 35 32 28 31 28 26 25 28 28 33 35 33 30 29 32 32 31 32
27 29 33 36 39 42 44 44 44 44 46 45 45 46 40 40 44 46 46 46 47 43 42 40 35 34 34 31 30 29 24 27 28 28 30 31 29 30 30 27 24 25 37
24 28 32 37 42 44 45 45 42 41 44 48 47 44 44 45 43 41 47 46 45 41 36 38 33 33 34 33 30 29 24 27 29 28 29 29 27 28 27 24 26 26 33

GFSMW_850_spd_246.txt.gz
Wind_Speed
34 29 23 26 39 46 47 48 47 49 51 51 51 50 51 48 46 43 41 40 39 37 36 35 34 32 33 31 30 30 29 29 28 26 29 29 29 30 31 30 31 30 30
29 29 27 27 29 39 46 49 51 51 50 54 55 54 52 51 48 46 44 43 43 42 40 39 38 36 36 36 35 34 33 32 30 29 28 30 31 31 29 29 29 28 25
28 27 20 22 23 36 43 45 48 53 54 53 54 55 54 53 53 52 49 48 48 45 43 42 41 40 39 39 38 37 37 36 34 31 25 11 12 20 19 11 17 22 19
21 19 22 22 17 22 37 45 48 50 53 55 58 57 59 61 60 57 53 51 50 47 46 45 44 43 41 42 40 39 38 37 38 36 36 35 36 30 31 31 24 23 30
27 29 24 17 19 17 19 42 47 52 52 57 60 59 59 59 60 59 58 55 52 50 47 46 46 46 44 41 40 40 39 38 38 39 38 37 36 37 39 42 44 41 41
35 37 36 30 26 18 17 26 44 52 54 55 58 62 62 59 58 61 58 58 55 54 51 49 47 46 45 44 42 41 39 38 38 37 38 39 36 36 35 37 45 46 48
38 43 48 50 46 37 25 19 30 49 53 56 57 60 62 62 61 59 59 58 56 57 55 54 51 49 46 45 45 44 43 41 40 39 40 39 41 41 43 43 46 46 48
39 44 49 52 54 56 44 25 11 31 44 50 56 57 57 61 63 63 61 59 57 54 56 55 54 52 51 49 47 45 43 42 41 41 40 41 40 40 43 44 43 44 45
37 42 48 53 55 58 60 51 33 8 13 33 41 46 48 50 55 56 58 58 57 55 51 50 50 50 50 48 47 45 44 44 42 40 39 40 37 39 40 41 42 41 35
38 38 41 45 49 52 54 55 54 48 20 6 21 32 38 42 47 48 49 48 50 48 46 45 39 35 35 35 37 39 38 39 40 39 40 40 38 40 39 38 40 41 42
35 36 41 41 42 47 46 46 52 53 49 38 6 13 23 31 36 41 45 47 49 48 43 31 27 26 28 31 32 33 35 36 36 37 37 36 34 39 40 38 38 40 41
29 30 36 38 41 42 44 44 43 44 46 43 40 23 7 13 24 30 33 36 42 46 48 38 29 32 29 31 34 34 32 31 34 35 35 36 34 38 37 38 37 39 39
28 33 36 39 41 43 44 43 40 40 36 37 38 33 32 26 22 14 8 9 9 17 17 29 19 20 25 30 29 34 32 32 29 31 31 34 35 39 37 34 35 36 37
22 28 38 42 43 41 43 41 42 37 36 33 32 34 30 26 23 18 17 16 12 7 9 8 24 39 48 28 28 27 27 26 27 28 30 32 32 33 34 34 34 33 33
23 28 33 39 41 42 42 41 38 39 36 33 31 29 31 31 27 20 19 15 14 13 11 6 6 13 15 18 22 23 22 22 24 27 30 33 31 30 28 31 34 36 36
28 32 33 38 40 42 40 42 42 37 34 33 33 29 27 29 35 35 31 21 16 13 11 9 10 9 9 13 18 20 19 19 24 27 26 30 28 28 28 29 29 29 39
27 32 32 27 31 37 37 38 39 39 36 33 34 31 28 28 29 32 35 31 27 21 16 12 11 11 14 14 15 17 20 21 22 25 26 28 28 27 25 27 29 31 34
27 32 36 39 35 33 35 36 36 38 38 38 38 37 38 35 30 29 31 32 30 29 23 19 16 16 16 17 18 18 18 20 21 25 26 27 27 24 23 28 34 33 34
26 31 32 34 35 34 34 36 38 39 41 40 38 38 39 41 40 36 32 29 30 35 35 28 24 23 24 22 21 22 21 20 22 23 26 27 29 27 26 29 32 37 39
28 29 30 32 31 32 34 35 36 38 38 39 41 41 42 42 42 43 42 39 36 36 36 36 33 29 29 28 26 27 27 28 27 27 27 25 27 29 27 30 31 35 39
26 25 26 27 30 32 35 37 39 39 37 38 41 41 42 43 43 45 43 43 44 43 40 40 42 39 35 34 32 31 29 30 31 31 30 28 28 28 28 29 32 33 35
23 25 27 29 31 32 35 37 40 40 40 42 42 44 44 43 45 45 46 44 44 45 45 44 46 43 40 36 34 36 35 31 31 32 31 29 29 30 29 30 31 31 33
28 26 25 27 28 31 33 36 39 39 41 43 44 43 41 38 38 41 45 43 42 43 45 42 45 47 43 38 35 31 34 34 31 29 29 29 30 30 33 34 32 34 33
26 25 26 27 28 31 33 34 39 38 38 40 43 43 44 42 39 36 36 39 40 36 37 36 39 43 42 43 35 30 28 34 29 27 26 27 27 30 32 31 30 29 31
24 23 23 26 30 33 36 36 40 41 42 42 43 44 44 43 44 43 41 40 40 36 38 39 37 39 43 40 34 29 30 27 27 27 25 26 28 28 29 27 28 27 27
21 23 25 27 30 34 37 37 41 46 47 45 46 45 46 47 48 47 48 43 42 38 38 38 37 37 39 37 33 32 32 28 27 26 24 24 27 27 27 26 26 27 24

GFSMW_850_spd_249.txt.gz
Wind_Speed
29 24 21 20 18 23 29 32 41 44 49 52 51 50 51 49 48 47 44 42 42 40 39 38 37 36 36 35 33 32 32 31 30 28 30 31 31 31 31 30 30 29 28
32 31 25 19 21 16 27 32 36 42 49 51 54 54 52 51 50 49 48 46 45 44 43 42 40 39 38 37 37 36 35 34 34 31 25 19 22 30 28 27 26 24 23
37 38 36 31 25 19 13 29 37 42 46 49 53 56 54 52 52 54 52 51 49 49 48 46 44 43 42 41 40 39 39 38 38 33 24 10 12 18 21 17 16 16 21
39 45 46 46 40 32 20 18 29 40 42 47 53 57 58 58 57 57 54 54 53 54 52 50 49 48 46 46 45 43 42 41 41 37 38 36 31 15 16 18 20 23 26
37 40 46 45 38 48 37 23 18 32 42 45 49 53 57 59 56 57 57 57 55 56 55 53 52 52 51 49 48 47 46 45 43 44 38 37 37 37 33 32 28 32 33
33 37 39 45 55 49 57 42 25 14 33 44 46 49 53 55 58 59 58 58 57 58 59 57 57 56 55 54 51 49 48 46 45 44 44 41 33 34 32 32 41 36 38
29 34 41 45 53 54 53 59 50 27 13 35 46 47 48 51 53 55 57 54 55 57 59 59 59 59 59 57 55 53 51 49 46 45 43 42 41 39 37 32 36 31 34
28 30 34 40 44 46 49 52 57 58 30 8 31 42 42 44 48 50 51 52 54 56 53 54 54 58 59 59 57 55 53 51 48 44 43 43 43 41 41 41 31 32 30
27 29 32 34 45 46 48 47 49 50 52 41 6 12 30 37 41 43 44 48 50 51 51 50 46 43 46 55 56 56 54 50 48 47 45 45 43 44 43 41 40 35 31
28 33 32 30 36 44 43 46 46 46 43 45 46 28 5 17 32 35 37 41 44 46 45 46 44 43 37 36 40 45 48 49 48 47 46 45 43 42 40 40 39 38 35
23 25 27 31 36 37 42 45 43 44 44 42 38 42 42 36 8 13 20 34 38 41 41 42 41 40 36 30 29 29 33 35 35 37 39 39 37 38 37 37 38 38 39
21 24 28 36 36 36 36 42 44 40 40 41 40 36 33 37 38 33 24 15 5 21 33 36 38 38 35 31 21 15 24 26 28 28 31 33 34 35 36 37 37 37 34
22 24 28 29 34 41 40 35 44 42 31 33 39 37 36 34 33 32 27 24 22 17 10 8 13 34 35 31 25 28 19 20 25 29 31 35 34 35 36 34 37 35 35
17 23 25 27 29 37 41 40 37 44 42 34 30 34 35 36 35 31 26 24 23 18 15 13 11 14 31 32 44 49 62 55 54 39 40 39 33 34 33 33 33 33 33
17 19 25 27 31 30 33 38 41 40 43 39 35 32 32 31 34 32 30 27 21 20 17 12 7 9 12 13 26 41 55 59 55 50 46 42 37 36 34 35 33 30 32
19 20 22 25 29 33 32 33 36 38 38 40 37 35 34 32 32 34 33 31 27 22 17 19 14 10 5 4 10 4 21 26 29 39 39 35 34 32 32 31 31 29 33
19 22 24 24 28 32 32 36 37 37 38 34 33 35 33 32 32 35 37 31 30 29 26 20 19 17 10 7 9 10 15 19 20 24 23 26 26 27 30 31 31 29 29
20 24 26 27 28 27 32 36 36 38 40 37 37 37 38 38 35 33 33 36 33 30 28 31 30 29 22 15 17 16 19 20 19 19 21 25 26 27 27 29 30 31 33
22 28 30 28 28 28 31 33 36 37 36 38 40 37 38 38 35 34 36 35 34 33 34 37 35 32 35 29 24 23 24 23 24 23 23 24 26 26 26 29 32 35 38
25 28 28 30 29 30 31 31 31 35 38 41 41 43 44 43 39 37 41 41 37 33 35 36 40 39 38 35 32 31 28 30 32 31 27 25 27 27 26 27 31 36 37
24 25 28 29 28 28 30 31 32 32 38 42 44 44 42 41 39 37 37 37 41 37 38 39 39 40 40 39 39 33 32 33 36 41 36 28 26 27 25 27 31 33 36
26 28 27 25 23 24 28 30 32 35 39 42 44 45 44 41 38 37 40 39 35 34 37 40 43 39 39 40 39 33 31 33 34 41 38 34 31 29 28 28 28 29 32
26 25 24 25 24 23 25 30 33 35 38 43 46 47 46 44 42 42 40 39 34 34 37 37 37 39 38 37 36 34 31 28 32 38 35 32 32 29 26 25 26 27 29
21 22 21 21 23 22 25 29 32 33 37 44 45 45 43 42 42 40 39 37 36 36 37 38 36 36 37 33 31 31 30 29 31 31 31 31 30 29 26 27 29 31 29
22 20 17 19 20 21 25 29 32 33 40 45 45 43 40 42 41 37 37 38 38 36 38 39 38 38 43 37 34 34 33 31 29 29 28 32 30 29 26 26 28 31 33
20 17 17 17 21 22 25 27 32 35 42 44 43 43 42 43 43 42 43 38 36 33 32 32 33 36 37 36 35 32 31 31 24 26 27 30 29 28 26 25 27 30 30